Time,TemperatureF,DewpointF,PressureIn,WindDirection,WindDirectionDegrees,WindSpeedMPH,WindSpeedGustMPH,Humidity,HourlyPrecipIn,Conditions,Clouds,dailyrainin,SoftwareType,DateUTC
2013-08-31 00:14:00,80.0,73.0,29.80,West,264,0.0,0.0,79,0.00,,,0.00,,2013-08-31 04:14:00,
2013-08-31 00:24:00,80.0,73.0,29.80,West,264,0.0,0.0,79,0.00,,,0.00,,2013-08-31 04:24:00,
2013-08-31 00:34:00,80.0,73.0,29.80,West,264,0.0,0.0,79,0.00,,,0.00,,2013-08-31 04:34:00,
2013-08-31 00:54:00,79.0,72.0,29.82,West,262,0.0,0.0,80,0.00,,,0.00,,2013-08-31 04:54:00,
2013-08-31 01:13:00,80.0,73.0,29.81,West,275,0.0,0.0,79,0.00,,,0.00,,2013-08-31 05:13:00,
2013-08-31 01:23:00,80.0,72.0,29.82,West,278,0.0,0.0,78,0.00,,,0.00,,2013-08-31 05:23:00,
2013-08-31 01:42:00,80.0,72.0,29.83,West,267,0.0,0.0,78,0.00,,,0.00,,2013-08-31 05:42:00,
2013-08-31 01:52:00,80.0,72.0,29.83,West,267,0.0,0.0,78,0.00,,,0.00,,2013-08-31 05:52:00,
2013-08-31 02:12:00,79.0,73.0,29.80,West,268,0.0,0.0,82,0.00,,,0.00,,2013-08-31 06:12:00,
2013-08-31 02:22:00,78.0,72.0,29.80,West,268,0.0,0.0,82,0.00,,,0.00,,2013-08-31 06:22:00,
2013-08-31 02:52:00,77.0,72.0,29.80,West,267,0.0,0.0,84,0.00,,,0.00,,2013-08-31 06:52:00,
2013-08-31 03:12:00,77.0,72.0,29.80,West,259,0.0,0.0,84,0.00,,,0.00,,2013-08-31 07:12:00,
2013-08-31 03:22:00,77.0,72.0,29.80,West,259,0.0,0.0,84,0.00,,,0.00,,2013-08-31 07:22:00,
2013-08-31 03:42:00,77.0,72.0,29.77,WSW,252,0.0,0.0,84,0.00,,,0.00,,2013-08-31 07:42:00,
2013-08-31 03:52:00,77.0,72.0,29.77,WSW,252,0.0,0.0,84,0.00,,,0.00,,2013-08-31 07:52:00,
2013-08-31 04:12:00,76.0,72.0,29.77,West,277,0.0,0.0,86,0.00,,,0.00,,2013-08-31 08:12:00,
2013-08-31 04:22:00,76.0,72.0,29.77,West,277,0.0,0.0,86,0.00,,,0.00,,2013-08-31 08:22:00,
2013-08-31 04:32:00,76.0,72.0,29.77,West,277,0.0,0.0,86,0.00,,,0.00,,2013-08-31 08:32:00,
2013-08-31 04:42:00,76.0,72.0,29.77,West,277,0.0,0.0,86,0.00,,,0.00,,2013-08-31 08:42:00,
2013-08-31 04:52:00,76.0,72.0,29.78,West,279,0.0,0.0,86,0.00,,,0.00,,2013-08-31 08:52:00,
2013-08-31 05:02:00,76.0,72.0,29.78,West,279,0.0,0.0,86,0.00,,,0.00,,2013-08-31 09:02:00,
2013-08-31 05:12:00,76.0,72.0,29.78,West,279,0.0,0.0,86,0.00,,,0.00,,2013-08-31 09:12:00,
2013-08-31 05:23:00,75.0,71.0,29.80,West,281,0.0,0.0,86,0.00,,,0.00,,2013-08-31 09:23:00,
2013-08-31 05:53:00,75.0,71.0,29.80,West,281,0.0,0.0,87,0.00,,,0.00,,2013-08-31 09:53:00,
2013-08-31 06:03:00,75.0,71.0,29.80,West,281,0.0,0.0,87,0.00,,,0.00,,2013-08-31 10:03:00,
2013-08-31 06:12:00,75.0,71.0,29.80,West,281,0.0,0.0,87,0.00,,,0.00,,2013-08-31 10:12:00,
2013-08-31 06:23:00,74.0,71.0,29.80,West,281,0.0,0.0,89,0.00,,,0.00,,2013-08-31 10:23:00,
2013-08-31 06:33:00,74.0,71.0,29.80,West,281,0.0,0.0,89,0.00,,,0.00,,2013-08-31 10:33:00,
2013-08-31 06:43:00,74.0,71.0,29.80,West,281,0.0,0.0,89,0.00,,,0.00,,2013-08-31 10:43:00,
2013-08-31 06:53:00,74.0,71.0,29.80,West,281,0.0,0.0,89,0.00,,,0.00,,2013-08-31 10:53:00,
2013-08-31 07:12:00,73.0,70.0,29.80,West,281,0.0,0.0,90,0.00,,,0.00,,2013-08-31 11:12:00,
2013-08-31 07:22:00,73.0,70.0,29.80,West,281,0.0,0.0,91,0.00,,,0.00,,2013-08-31 11:22:00,
2013-08-31 07:42:00,72.0,70.0,29.80,West,281,0.0,0.0,92,0.00,,,0.00,,2013-08-31 11:42:00,
2013-08-31 07:52:00,72.0,70.0,29.80,West,281,0.0,0.0,92,0.00,,,0.00,,2013-08-31 11:52:00,
2013-08-31 08:02:00,72.0,70.0,29.80,West,281,0.0,0.0,92,0.00,,,0.00,,2013-08-31 12:02:00,
2013-08-31 08:11:00,72.0,70.0,29.80,West,281,0.0,0.0,92,0.00,,,0.00,,2013-08-31 12:11:00,
2013-08-31 08:22:00,73.0,71.0,29.81,West,281,0.0,0.0,93,0.00,,,0.00,,2013-08-31 12:22:00,
2013-08-31 08:42:00,73.0,71.0,29.81,West,281,0.0,0.0,93,0.00,,,0.00,,2013-08-31 12:42:00,
2013-08-31 08:52:00,73.0,71.0,29.81,West,281,0.0,0.0,93,0.00,,,0.00,,2013-08-31 12:52:00,
2013-08-31 09:11:00,74.0,72.0,29.81,West,281,0.0,0.0,93,0.00,,,0.00,,2013-08-31 13:11:00,
2013-08-31 09:22:00,74.0,72.0,29.81,SSW,207,0.0,0.0,92,0.00,,,0.00,,2013-08-31 13:22:00,
2013-08-31 09:42:00,75.0,72.0,29.81,SSW,199,0.0,0.0,91,0.00,,,0.00,,2013-08-31 13:42:00,
2013-08-31 09:52:00,76.0,73.0,29.81,South,172,0.0,0.0,90,0.00,,,0.00,,2013-08-31 13:52:00,
2013-08-31 10:12:00,76.0,73.0,29.81,WSW,237,0.0,0.0,89,0.00,,,0.00,,2013-08-31 14:12:00,
2013-08-31 10:22:00,76.0,73.0,29.81,WSW,237,0.0,0.0,89,0.00,,,0.00,,2013-08-31 14:22:00,
2013-08-31 10:52:00,79.0,74.0,29.82,WSW,251,0.0,0.0,85,0.00,,,0.00,,2013-08-31 14:52:00,
2013-08-31 11:01:00,79.0,74.0,29.82,WSW,251,0.0,0.0,85,0.00,,,0.00,,2013-08-31 15:01:00,
2013-08-31 11:11:00,79.0,74.0,29.82,WSW,251,0.0,0.0,85,0.00,,,0.00,,2013-08-31 15:11:00,
2013-08-31 11:23:00,82.0,76.0,29.82,WSW,237,0.0,0.0,81,0.00,,,0.00,,2013-08-31 15:23:00,
2013-08-31 11:55:00,84.0,75.0,29.81,West,265,0.0,0.0,74,0.00,,,0.00,,2013-08-31 15:55:00,
2013-08-31 12:14:00,86.0,75.0,29.81,West,276,0.0,0.0,71,0.00,,,0.00,,2013-08-31 16:14:00,
2013-08-31 12:25:00,86.0,75.0,29.81,West,276,0.0,0.0,71,0.00,,,0.00,,2013-08-31 16:25:00,
2013-08-31 12:44:00,88.0,76.0,29.80,West,263,0.0,0.0,68,0.00,,,0.00,,2013-08-31 16:44:00,
2013-08-31 12:53:00,88.0,76.0,29.80,West,263,0.0,0.0,68,0.00,,,0.00,,2013-08-31 16:53:00,
2013-08-31 13:13:00,89.0,77.0,29.79,WSW,254,0.0,0.0,68,0.00,,,0.00,,2013-08-31 17:13:00,
2013-08-31 13:23:00,91.0,78.0,29.79,WSW,240,0.0,0.0,65,0.00,,,0.00,,2013-08-31 17:23:00,
2013-08-31 13:43:00,93.0,79.0,29.78,West,266,0.0,0.0,64,0.00,,,0.00,,2013-08-31 17:43:00,
2013-08-31 13:53:00,94.0,80.0,29.78,SSE,160,0.0,0.0,64,0.00,,,0.00,,2013-08-31 17:53:00,
2013-08-31 14:12:00,96.0,79.0,29.77,West,264,0.0,0.0,58,0.00,,,0.00,,2013-08-31 18:12:00,
2013-08-31 14:22:00,96.0,79.0,29.77,SSW,196,0.0,0.0,58,0.00,,,0.00,,2013-08-31 18:22:00,
2013-08-31 14:52:00,98.0,80.0,29.77,West,268,0.0,0.0,56,0.00,,,0.00,,2013-08-31 18:52:00,
2013-08-31 15:12:00,99.0,79.0,29.76,SW,233,0.0,0.0,54,0.00,,,0.00,,2013-08-31 19:12:00,
2013-08-31 15:22:00,99.0,79.0,29.76,SW,233,0.0,0.0,54,0.00,,,0.00,,2013-08-31 19:22:00,
2013-08-31 15:52:00,99.0,78.0,29.75,WSW,253,0.0,0.0,52,0.00,,,0.00,,2013-08-31 19:52:00,
2013-08-31 16:12:00,98.0,78.0,29.74,West,273,0.0,0.0,53,0.00,,,0.00,,2013-08-31 20:12:00,
2013-08-31 16:22:00,98.0,78.0,29.73,WSW,246,0.0,0.0,54,0.00,,,0.00,,2013-08-31 20:22:00,
2013-08-31 16:42:00,98.0,77.0,29.72,South,171,0.0,0.0,52,0.00,,,0.00,,2013-08-31 20:42:00,
2013-08-31 16:52:00,98.0,77.0,29.72,South,171,0.0,0.0,52,0.00,,,0.00,,2013-08-31 20:52:00,
2013-08-31 17:12:00,98.0,77.0,29.70,SSW,195,0.0,0.0,52,0.00,,,0.00,,2013-08-31 21:12:00,
2013-08-31 17:22:00,98.0,77.0,29.70,SSW,195,0.0,0.0,52,0.00,,,0.00,,2013-08-31 21:22:00,
2013-08-31 17:54:00,97.0,78.0,29.68,West,276,0.0,0.0,55,0.00,,,0.00,,2013-08-31 21:54:00,
2013-08-31 18:13:00,96.0,76.0,29.68,West,268,0.0,0.0,53,0.00,,,0.00,,2013-08-31 22:13:00,
2013-08-31 18:23:00,96.0,76.0,29.68,West,268,0.0,0.0,53,0.00,,,0.00,,2013-08-31 22:23:00,
2013-08-31 18:43:00,96.0,75.0,29.70,WSW,256,0.0,0.0,52,0.00,,,0.00,,2013-08-31 22:43:00,
2013-08-31 18:53:00,96.0,76.0,29.71,WSW,253,0.0,0.0,53,0.00,,,0.00,,2013-08-31 22:53:00,
2013-08-31 19:12:00,95.0,76.0,29.71,WSW,254,0.0,0.0,54,0.00,,,0.00,,2013-08-31 23:12:00,
2013-08-31 19:22:00,95.0,76.0,29.71,WSW,254,0.0,0.0,54,0.00,,,0.00,,2013-08-31 23:22:00,
2013-08-31 19:42:00,94.0,76.0,29.71,WSW,251,0.0,0.0,56,0.00,,,0.00,,2013-08-31 23:42:00,
2013-08-31 19:52:00,94.0,76.0,29.71,WSW,251,0.0,0.0,56,0.00,,,0.00,,2013-08-31 23:52:00,
2013-08-31 20:01:00,94.0,76.0,29.71,WSW,251,0.0,0.0,56,0.00,,,0.00,,2013-09-01 00:01:00,
2013-08-31 20:11:00,94.0,76.0,29.71,WSW,251,0.0,0.0,56,0.00,,,0.00,,2013-09-01 00:11:00,
2013-08-31 20:22:00,92.0,76.0,29.72,West,261,0.0,0.0,59,0.00,,,0.00,,2013-09-01 00:22:00,
2013-08-31 20:42:00,90.0,74.0,29.74,NE,56,0.0,0.0,60,0.00,,,0.00,,2013-09-01 00:42:00,
2013-08-31 20:52:00,85.0,71.0,29.77,ENE,75,0.0,0.0,64,0.00,,,0.00,,2013-09-01 00:52:00,
2013-08-31 21:42:00,77.0,70.0,29.78,NE,52,0.0,0.0,79,0.00,,,0.00,,2013-09-01 01:42:00,
2013-08-31 21:52:00,77.0,70.0,29.78,NE,52,0.0,0.0,79,0.00,,,0.00,,2013-09-01 01:52:00,
2013-08-31 22:12:00,76.0,70.0,29.83,NE,37,0.0,0.0,81,0.00,,,0.00,,2013-09-01 02:12:00,
2013-08-31 22:22:00,76.0,70.0,29.83,NE,37,0.0,0.0,81,0.00,,,0.00,,2013-09-01 02:22:00,
2013-08-31 22:32:00,76.0,70.0,29.83,NE,37,0.0,0.0,81,0.00,,,0.00,,2013-09-01 02:32:00,
2013-08-31 22:43:00,76.0,70.0,29.83,NE,37,0.0,0.0,81,0.00,,,0.00,,2013-09-01 02:43:00,
2013-08-31 22:53:00,71.0,68.0,29.83,West,270,0.0,0.0,91,0.35,,,0.33,,2013-09-01 02:53:00,
2013-08-31 23:12:00,70.0,68.0,29.79,NNE,22,0.0,0.0,93,0.63,,,0.63,,2013-09-01 03:12:00,
2013-08-31 23:23:00,70.0,68.0,29.79,NNE,22,0.0,0.0,93,0.63,,,0.63,,2013-09-01 03:23:00,
2013-08-31 23:54:00,70.0,68.0,29.75,WSW,237,0.0,0.0,95,0.62,,,0.64,,2013-09-01 03:54:00,